Location: Buena Vista
(37.7110°N, 119.7938°W)
Time: 01:12:13
(UTC+00:00)

Envisat - Pass Details

Date: 16 August 2024
Orbit: 762 x 764 km, 98.3° (Epoch: 08 September)

Event Time Altitude Azimuth Distance (km) Brightness Sun altitude
Rises 09:46:15 0° 36° (NE) 3,230 7.3 -33.4°
Reaches altitude 10° 09:50:02 10° 65° (ENE) 2,298 6.1 -33.0°
Maximum altitude 09:52:10 13° 91° (E) 2,120 5.6 -32.8°
Enters shadow 09:53:29 12° 107° (ESE) 2,187 5.5 -32.6°
